This demonstration page uses our WeatherBlox Daily Observations layout. Learn more.

Left ArrowRight Arrow

41.12389, -100.76542

Hourly Observations for February 1, 2017

Temp ( °F °C ) Dew Point ( °F °C ) Humidity (%) Winds ( mph kmh ) Pressure ( in mb ) Visibility ( mi km ) Precip ( " mm )
12:11 am 00:11 Cloudy 30 -1.1 24 -4.4 79 79 NE 14 22 30.21 1023 10 16 0.00 0.00
12:37 am 00:37 Cloudy 30 -1.1 24 -4.4 79 79 NNE 17 28 30.18 1022 10 16 0.00 0.00
12:53 am 00:53 Cloudy 28 -2.2 23 -5 81 81 NNE 16 26 30.17 1022 10 16 0.00 0.00
1:05 am 01:05 Cloudy 28 -2.2 21 -6.1 75 75 NE 12 19 30.24 1024 10 16 0.00 0.00
1:36 am 01:36 Cloudy 27 -3 21 -6 80 80 NNE 14 22 30.24 1024 10 16 0.00 0.00
1:53 am 01:53 Cloudy 27 -2.8 21 -6.1 78 78 NE 12 19 30.17 1022 10 16 0.00 0.00
2:13 am 02:13 Cloudy 26 -3.3 20 -6.7 78 78 NE 9 15 30.27 1025 10 16 0.00 0.00
2:53 am 02:53 Cloudy 26 -3.3 19 -7.2 75 75 NNE 12 19 30.20 1023 10 16 0.00 0.00
3:27 am 03:27 Cloudy 25 -3.9 17 -8.3 72 72 NNE 12 19 30.33 1027 10 16 0.00 0.00
3:53 am 03:53 Cloudy 25 -3.9 17 -8.3 72 72 NNE 15 24 30.22 1023 10 16 0.00 0.00
4:53 am 04:53 Cloudy 25 -3.9 15 -9.4 66 66 NNE 12 19 30.22 1023 10 16 0.00 0.00
5:46 am 05:46 Cloudy 25 -4 16 -9 69 69 NNE 10 17 30.33 1027 10 16 0.00 0.00
5:53 am 05:53 Cloudy 24 -4.4 16 -8.9 71 71 NNE 13 20 30.24 1024 10 16 0.00 0.00
6:08 am 06:08 Cloudy 25 -4 16 -9 69 69 NNE 12 19 30.33 1027 10 16 0.00 0.00
6:53 am 06:53 Cloudy 24 -4.4 16 -8.9 71 71 NNE 10 17 30.25 1024 10 16 0.00 0.00
7:53 am 07:53 Cloudy 24 -4.4 16 -8.9 71 71 NNE 8 13 30.28 1026 10 16 0.00 0.00
8:53 am 08:53 Cloudy 24 -4.4 16 -8.9 71 71 NNE 8 13 30.30 1026 10 16 0.00 0.00
9:01 am 09:01 Cloudy 25 -4 16 -9 69 69 NNE 8 13 30.39 1029 10 16 0.00 0.00
9:22 am 09:22 Cloudy 25 -4 16 -9 69 69 NNE 8 13 30.39 1029 10 16 0.00 0.00
9:53 am 09:53 Cloudy 24 -4.4 16 -8.9 71 71 NNE 9 15 30.33 1027 10 16 0.00 0.00
10:27 am 10:27 Cloudy 24 -4.4 14 -10 65 65 NNE 12 19 30.42 1030 10 16 0.00 0.00
10:53 am 10:53 Cloudy 24 -4.4 14 -10 65 65 NE 9 15 30.35 1028 10 16 0.00 0.00
11:53 am 11:53 Cloudy 24 -4.4 13 -10.6 62 62 NNE 9 15 30.38 1029 10 16 0.00 0.00
12:53 pm 12:53 Cloudy 25 -3.9 13 -10.6 60 60 NNE 8 13 30.38 1029 10 16 0.00 0.00
1:32 pm 13:32 Cloudy 25 -4 12 -11 59 59 N 9 15 30.45 1031 10 16 0.00 0.00
1:39 pm 13:39 Cloudy 25 -3.9 13 -10.6 60 60 N 9 15 30.42 1030 10 16 0.00 0.00
1:49 pm 13:49 Cloudy 25 -4 12 -11 59 59 N 9 15 30.42 1030 10 16 0.00 0.00
1:53 pm 13:53 Cloudy 25 -3.9 14 -10 63 63 NNE 9 15 30.38 1029 10 16 0.00 0.00
2:40 pm 14:40 Cloudy 27 -3 12 -11 54 54 N 10 17 30.42 1030 10 16 0.00 0.00
2:49 pm 14:49 Cloudy 27 -3 12 -11 54 54 N 12 19 30.42 1030 10 16 0.00 0.00
2:53 pm 14:53 Cloudy 26 -3.3 14 -10 60 60 N 9 15 30.37 1029 10 16 0.00 0.00
3:41 pm 15:41 Cloudy 25 -3.9 15 -9.4 66 66 NNE 9 15 30.45 1031 10 16 0.00 0.00
3:53 pm 15:53 Cloudy 25 -3.9 14 -10 63 63 N 8 13 30.40 1029 10 16 0.00 0.00
4:53 pm 16:53 Cloudy 25 -3.9 13 -10.6 60 60 N 9 15 30.42 1030 10 16 0.00 0.00
5:53 pm 17:53 Sunny 37 3 21 -6 52 52 ESE 9 15 29.97 1015 10 16 0.00 0.00
6:53 pm 18:53 Cloudy 24 -4.4 14 -10 65 65 N 5 7 30.48 1032 10 16 0.00 0.00
7:25 pm 19:25 Cloudy 23 -5 14 -10 68 68 N 6 9 30.56 1035 10 16 0.00 0.00
7:53 pm 19:53 Cloudy 23 -5 15 -9.4 72 72 N 3 6 30.50 1033 10 16 0.00 0.00
8:53 pm 20:53 Mostly Cloudy 22 -5.6 14 -10 71 71 N 8 13 30.51 1033 10 16 0.00 0.00
9:53 pm 21:53 Clear 22 -5.6 14 -10 71 71 NNW 6 9 30.53 1034 10 16 0.00 0.00
10:53 pm 22:53 Mostly Cloudy 21 -6.1 13 -10.6 71 71 NW 5 7 30.55 1035 10 16 0.00 0.00
11:53 pm 23:53 Cloudy 20 -6.7 12 -11.1 71 71 NNW 3 6 30.56 1035 10 16 0.00 0.00

Powered by AerisWeather